Location: Juzet
(42.9779°N, 0.7597°E)
Time: 01:48:35
(UTC+00:00)

BREEZE-M DEB (TANK) - Pass Details

Date: 14 July 2020
Orbit: 426 x 13239 km, 46.0° (Epoch: 04 August)

Event Time Altitude Azimuth Distance (km) Brightness Sun altitude
Rises 23:58:46 0° 248° (WSW) 8,606 8.7 -25.4°
Reaches altitude 10° 00:06:45 10° 249° (WSW) 5,693 7.7 -25.4°
Maximum altitude 00:18:51 89° 337° (NNW) 989 3.9 -25.3°
Drops below altitude 10° 00:22:47 10° 71° (ENE) 1,962 5.9 -25.2°
Sets 00:24:15 0° 72° (ENE) 2,637 6.6 -25.2°
